Météo par heure à Juradó

Ce jour, 20 Juin, Dimanche

Heure Température Précipitation Vent Pression Humidité
00:00 +27°C° 1.3 mm 1 m/s 759 mmHg 93%
01:00 +25°C° 1.3 mm 0 m/s 759 mmHg 94%
02:00 +27°C° 0.8 mm 1 m/s 759 mmHg 93%
03:00 +27°C° 0.8 mm 1 m/s 758 mmHg 93%
04:00 +27°C° 0.8 mm 1 m/s 758 mmHg 93%
05:00 +27°C° 0.7 mm 1 m/s 759 mmHg 93%
06:00 +27°C° 0.7 mm 2 m/s 759 mmHg 93%
07:00 +27°C° 0.7 mm 2 m/s 759 mmHg 93%
08:00 +27°C° 0.6 mm 2 m/s 760 mmHg 91%
09:00 +28°C° 0.6 mm 3 m/s 760 mmHg 89%
10:00 +28°C° 0.6 mm 3 m/s 760 mmHg 87%
11:00 +29°C° 0.3 mm 3 m/s 760 mmHg 85%
12:00 +29°C° 0.3 mm 2 m/s 759 mmHg 82%
13:00 +29°C° 0.3 mm 2 m/s 759 mmHg 80%
14:00 +29°C° 0 mm 2 m/s 759 mmHg 79%
15:00 +29°C° 0 mm 2 m/s 758 mmHg 77%
16:00 +29°C° 0 mm 2 m/s 758 mmHg 76%
17:00 +29°C° 0 mm 2 m/s 758 mmHg 80%
18:00 +28°C° 0 mm 1 m/s 759 mmHg 85%
19:00 +27°C° 0 mm 1 m/s 759 mmHg 89%
20:00 +27°C° 0.1 mm 1 m/s 759 mmHg 90%
21:00 +27°C° 0.1 mm 1 m/s 760 mmHg 91%
22:00 +26°C° 0.1 mm 1 m/s 760 mmHg 93%
23:00 +26°C° 1.1 mm 1 m/s 760 mmHg 93%

Demain, 21 Juin, Lundi

Heure Température Précipitation Vent Pression Humidité
00:00 +26°C° 1.1 mm 1 m/s 759 mmHg 94%
01:00 +26°C° 1.1 mm 2 m/s 759 mmHg 95%
02:00 +26°C° 5 mm 2 m/s 759 mmHg 96%
03:00 +26°C° 5 mm 2 m/s 759 mmHg 97%
04:00 +26°C° 5 mm 2 m/s 759 mmHg 98%
05:00 +26°C° 3.8 mm 2 m/s 759 mmHg 97%
06:00 +26°C° 3.8 mm 2 m/s 760 mmHg 97%
07:00 +26°C° 3.8 mm 1 m/s 760 mmHg 96%
08:00 +27°C° 0.1 mm 1 m/s 760 mmHg 93%
09:00 +27°C° 0.1 mm 1 m/s 760 mmHg 90%
10:00 +28°C° 0.1 mm 1 m/s 761 mmHg 88%
11:00 +28°C° 0.3 mm 2 m/s 760 mmHg 85%
12:00 +29°C° 0.3 mm 2 m/s 760 mmHg 82%
13:00 +30°C° 0.3 mm 2 m/s 759 mmHg 79%
14:00 +29°C° 0.2 mm 2 m/s 759 mmHg 79%
15:00 +29°C° 0.2 mm 2 m/s 758 mmHg 79%
16:00 +29°C° 0.2 mm 2 m/s 758 mmHg 80%
17:00 +28°C° 0.1 mm 2 m/s 758 mmHg 84%
18:00 +27°C° 0.1 mm 2 m/s 759 mmHg 88%
19:00 +27°C° 0.1 mm 1 m/s 759 mmHg 92%
20:00 +27°C° 0.2 mm 1 m/s 759 mmHg 92%
21:00 +27°C° 0.2 mm 1 m/s 760 mmHg 92%
22:00 +27°C° 0.2 mm 1 m/s 760 mmHg 93%
23:00 +27°C° 0 mm 1 m/s 760 mmHg 93%

Après-demain, 22 Juin, Mardi

Heure Température Précipitation Vent Pression Humidité
00:00 +27°C° 0 mm 1 m/s 760 mmHg 93%
01:00 +27°C° 0 mm 1 m/s 759 mmHg 93%
02:00 +27°C° 0.6 mm 1 m/s 759 mmHg 93%
03:00 +26°C° 0.6 mm 1 m/s 759 mmHg 93%
04:00 +26°C° 0.6 mm 1 m/s 759 mmHg 93%
05:00 +26°C° 0.2 mm 1 m/s 759 mmHg 93%
06:00 +27°C° 0.2 mm 1 m/s 760 mmHg 92%
07:00 +27°C° 0.2 mm 1 m/s 760 mmHg 92%
08:00 +28°C° 0.1 mm 1 m/s 760 mmHg 86%
09:00 +29°C° 0.1 mm 1 m/s 760 mmHg 80%
10:00 +30°C° 0.1 mm 2 m/s 761 mmHg 74%
11:00 +30°C° 0.3 mm 2 m/s 760 mmHg 74%
12:00 +31°C° 0.3 mm 2 m/s 760 mmHg 73%
13:00 +31°C° 0.3 mm 2 m/s 759 mmHg 72%
14:00 +31°C° 0.2 mm 2 m/s 759 mmHg 74%
15:00 +30°C° 0.2 mm 2 m/s 759 mmHg 75%
16:00 +30°C° 0.2 mm 2 m/s 758 mmHg 76%
17:00 +29°C° 0.1 mm 1 m/s 758 mmHg 80%
18:00 +28°C° 0.1 mm 1 m/s 759 mmHg 84%
19:00 +27°C° 0.1 mm 1 m/s 759 mmHg 89%
20:00 +27°C° 0.4 mm 1 m/s 759 mmHg 89%
21:00 +25°C° 0.4 mm 0 m/s 759 mmHg 90%
22:00 +25°C° 0.4 mm 0 m/s 760 mmHg 91%
23:00 +25°C° 0.4 mm 0 m/s 760 mmHg 91%

23 Juin, Mercredi

Heure Température Précipitation Vent Pression Humidité
00:00 +24°C° 0.4 mm 0 m/s 760 mmHg 92%
01:00 +24°C° 0.4 mm 0 m/s 760 mmHg 93%
02:00 +24°C° 1.4 mm 0 m/s 759 mmHg 93%
03:00 +24°C° 1.4 mm 0 m/s 759 mmHg 93%
04:00 +24°C° 1.4 mm 0 m/s 759 mmHg 94%
05:00 +26°C° 1.3 mm 1 m/s 759 mmHg 93%
06:00 +26°C° 1.3 mm 1 m/s 760 mmHg 93%
07:00 +26°C° 1.3 mm 1 m/s 760 mmHg 92%
08:00 +27°C° 1.3 mm 1 m/s 760 mmHg 90%
09:00 +28°C° 1.3 mm 1 m/s 761 mmHg 87%
10:00 +29°C° 1.3 mm 1 m/s 761 mmHg 85%
11:00 +29°C° 0.6 mm 1 m/s 760 mmHg 82%
12:00 +30°C° 0.6 mm 2 m/s 760 mmHg 79%
13:00 +30°C° 0.6 mm 2 m/s 760 mmHg 75%
14:00 +30°C° 0.3 mm 2 m/s 759 mmHg 76%
15:00 +30°C° 0.3 mm 2 m/s 759 mmHg 77%
16:00 +30°C° 0.3 mm 3 m/s 758 mmHg 78%
17:00 +29°C° 0.1 mm 2 m/s 758 mmHg 82%
18:00 +28°C° 0.1 mm 2 m/s 759 mmHg 87%
19:00 +27°C° 0.1 mm 2 m/s 759 mmHg 91%
20:00 +27°C° 0.1 mm 1 m/s 759 mmHg 91%
21:00 +27°C° 0.1 mm 1 m/s 760 mmHg 92%
22:00 +27°C° 0.1 mm 1 m/s 760 mmHg 92%
23:00 +26°C° 1.1 mm 1 m/s 760 mmHg 93%

24 Juin, Jeudi

Heure Température Précipitation Vent Pression Humidité
00:00 +26°C° 1.1 mm 1 m/s 759 mmHg 94%
01:00 +24°C° 1.1 mm 0 m/s 759 mmHg 94%
02:00 +24°C° 0.8 mm 0 m/s 759 mmHg 94%
03:00 +24°C° 0.8 mm 0 m/s 759 mmHg 94%
04:00 +23°C° 0.8 mm 0 m/s 759 mmHg 94%
05:00 +26°C° 0.2 mm 1 m/s 759 mmHg 94%
06:00 +26°C° 0.2 mm 1 m/s 759 mmHg 93%
07:00 +26°C° 0.2 mm 1 m/s 760 mmHg 93%
08:00 +27°C° 0.4 mm 1 m/s 760 mmHg 89%
09:00 +28°C° 0.4 mm 1 m/s 760 mmHg 84%
10:00 +30°C° 0.4 mm 1 m/s 760 mmHg 80%
11:00 +29°C° 1 mm 1 m/s 760 mmHg 81%
12:00 +29°C° 1 mm 1 m/s 759 mmHg 83%
13:00 +29°C° 1 mm 1 m/s 759 mmHg 85%
14:00 +29°C° 0.4 mm 1 m/s 759 mmHg 84%
15:00 +29°C° 0.4 mm 2 m/s 758 mmHg 82%
16:00 +29°C° 0.4 mm 2 m/s 758 mmHg 81%
17:00 +28°C° 0.2 mm 1 m/s 758 mmHg 84%
18:00 +28°C° 0.2 mm 1 m/s 758 mmHg 87%
19:00 +27°C° 0.2 mm 1 m/s 759 mmHg 89%
20:00 +27°C° 0.4 mm 1 m/s 759 mmHg 90%
21:00 +27°C° 0.4 mm 1 m/s 760 mmHg 90%
22:00 +25°C° 0.4 mm 0 m/s 760 mmHg 91%
23:00 +24°C° 1.4 mm 0 m/s 760 mmHg 92%

25 Juin, Vendredi

Heure Température Précipitation Vent Pression Humidité
00:00 +24°C° 1.4 mm 0 m/s 760 mmHg 93%
01:00 +24°C° 1.4 mm 0 m/s 759 mmHg 94%
02:00 +26°C° 1.2 mm 1 m/s 759 mmHg 95%
03:00 +26°C° 1.2 mm 1 m/s 759 mmHg 95%
04:00 +25°C° 1.2 mm 1 m/s 759 mmHg 96%
05:00 +26°C° 0.5 mm 1 m/s 759 mmHg 95%
06:00 +26°C° 0.5 mm 1 m/s 759 mmHg 95%
07:00 +26°C° 0.5 mm 1 m/s 760 mmHg 95%
08:00 +26°C° 0.3 mm 1 m/s 760 mmHg 93%
09:00 +27°C° 0.3 mm 1 m/s 760 mmHg 91%
10:00 +27°C° 0.3 mm 1 m/s 760 mmHg 89%
11:00 +28°C° 0.2 mm 1 m/s 760 mmHg 85%
12:00 +29°C° 0.2 mm 2 m/s 759 mmHg 81%
13:00 +30°C° 0.2 mm 2 m/s 758 mmHg 77%
14:00 +29°C° 0.1 mm 2 m/s 758 mmHg 78%
15:00 +29°C° 0.1 mm 2 m/s 757 mmHg 79%
16:00 +29°C° 0.1 mm 2 m/s 757 mmHg 80%
17:00 +28°C° 0.1 mm 2 m/s 757 mmHg 84%
18:00 +27°C° 0.1 mm 2 m/s 758 mmHg 88%
19:00 +26°C° 0.1 mm 1 m/s 758 mmHg 92%
20:00 +26°C° 0 mm 1 m/s 759 mmHg 92%
21:00 +26°C° 0 mm 1 m/s 759 mmHg 91%
22:00 +27°C° 0 mm 1 m/s 760 mmHg 91%
23:00 +24°C° 0.4 mm 0 m/s 760 mmHg 92%
Voir plus

Nous avons besoin de votre consentement

Meteoprog et ses fournisseurs de services peuvent stocker et accéder à des données personnelles telles que des cookies, des identifiants d'appareils ou d'autres technologies similaires sur votre appareil et traiter ces données pour personnaliser le contenu et les publicités, ainsi que pour fournir des fonctionnalités de médias sociaux et analyser le trafic.

  • Stocker et/ou accéder à des informations sur votre appareil

    Des cookies, des identifiants d'appareils ou d'autres informations peuvent être stockés ou accessibles sur votre appareil aux fins indiquées ci-dessus.

  • Annonces et contenus personnalisés, mesure des annonces et des contenus, connaissance de l'audience et développement de produits

    Les annonces et le contenu peuvent être personnalisés en fonction d'un profil. D'autres données peuvent être ajoutées pour mieux personnaliser les annonces et le contenu. Les performances des publicités et du contenu peuvent être mesurées. Il est possible d'obtenir des informations sur le public qui a vu les publicités et le contenu. Ces données peuvent être utilisées pour développer ou améliorer l'expérience de l'utilisateur, les systèmes et les logiciels.

En cliquant sur "J'accepte", vous autorisez l'utilisation de cookies, des identifiants d'appareils, des balises web ou d'autres technologies similaires. Vos paramètres peuvent être modifiés dans le navigateur de votre appareil.

Dans certains cas, des intérêts légitimes peuvent être invoqués plutôt qu'un consentement. Vous pouvez en savoir plus à ce sujet dans notre Politique de confidentialité et de cookies.